Location: Oshawa
(43.9000°N, 78.8670°W)
Time: 03:47:18
(UTC-05:00)

Daily predictions for brighter satellites

Satellite Brightness Start Highest point End
(mag) Time Altitude Azimuth Time Altitude Azimuth Time Altitude Azimuth
ATLAS 2AS CENTAUR R/B 4.2 03:29:02 33° N 03:29:02 33° N 03:34:27 10° NNE
ADEOS II 4.3 03:34:14 10° NNE 03:35:33 18° NNE 03:35:33 18° NNE
CENTAUR R/B 3.1 03:53:27 78° SE 03:53:27 78° SE 04:01:17 10° SE
NOSS 3-4 (A) 4.5 03:55:25 39° N 03:55:25 39° N 03:59:39 10° NNE
NOSS 3-4 (C) 4.5 03:55:30 39° N 03:55:30 39° N 03:59:46 10° NNE
Cosmos 1697 Rocket 4.2 04:02:00 26° SE 04:03:38 31° ESE 04:08:29 10° NE
Cosmos 2227 Rocket 4.3 04:10:02 16° SSE 04:10:02 16° SSE 04:11:04 10° SSE
Okean O Rocket 3.3 04:07:12 10° NNE 04:10:09 32° ENE 04:10:09 32° ENE
Lacrosse 5 rocket 3.6 04:14:46 21° E 04:14:46 21° E 04:16:29 10° E
Cosmos 2297 Rocket 3.5 04:22:28 30° SSE 04:22:28 30° SSE 04:25:10 10° SSE
Cosmos 2298 Rocket 4.3 04:26:27 66° ESE 04:26:30 66° ESE 04:31:46 10° NNE
CZ-4B R/B 3.8 04:23:55 10° NNE 04:29:14 53° E 04:32:44 21° S
CZ-3 R/B 3.8 04:27:10 33° SW 04:33:25 41° SSW 04:41:15 10° SE
CZ-4B DEB 4.2 04:36:37 10° NNE 04:42:08 79° ESE 04:44:18 38° S
Cosmos 2150 Rocket 3.9 04:43:18 71° S 04:43:51 82° ESE 04:49:02 10° NNE
Cosmos 2082 4.0 04:48:38 50° SSW 04:48:38 50° SSW 04:53:02 10° S
Cosmos 1000 Rocket 4.3 04:42:24 10° N 04:48:41 84° W 04:54:53 10° S
Cosmos 2098 Rocket 4.3 04:49:43 44° NW 04:49:43 44° NW 04:55:08 10° N
IDEFIX/ARIANE 42P 4.2 04:45:48 10° NNE 04:50:33 34° E 04:55:14 10° SSE
Cosmos 2278 3.6 04:51:07 63° WSW 04:51:55 74° WNW 04:57:39 10° NNE
Cosmos 2239 Rocket 4.3 04:49:47 10° S 04:55:55 88° W 05:02:06 10° N
COSMOS 2455 3.9 04:51:05 10° NNW 04:56:50 43° NE 05:02:32 10° ESE
PAYLOAD B 4.1 04:51:49 10° NNE 04:57:20 77° WNW 04:59:33 37° SSW
Cosmos 1862 3.4 04:58:48 10° N 05:02:47 73° E 05:06:46 10° SSE
Genesis I 3.8 05:03:48 47° N 05:03:48 47° N 05:06:57 10° NNE
Okean-O 4.4 05:00:08 10° NNE 05:04:08 32° E 05:08:08 10° SSE
CZ-4B R/B 4.0 05:06:41 10° N 05:11:07 66° WNW 05:11:58 52° SW
Cosmos 1048 Rocket 4.5 05:11:00 10° NNW 05:16:07 59° ENE 05:21:09 10° SSE
Cosmos 1980 Rocket 2.4 05:10:35 10° SSW 05:16:13 70° ESE 05:21:52 10° NNE
SJ 16-02 1.8 05:12:39 10° S 05:17:00 60° ESE 05:21:23 10° NNE
ADEOS II 4.0 05:15:21 10° NNW 05:16:31 14° NNW 05:16:31 14° NNW
EXPRESS MD2 4.1 05:17:31 38° NW 05:18:58 63° NNE 05:26:02 10° ESE
Cosmos 2369 4.1 05:17:54 38° W 05:19:08 43° WNW 05:24:37 10° NNE
Cosmos 158 Rocket 3.8 05:15:06 10° NNW 05:20:08 86° WSW 05:25:17 10° SSE
COSMO-SKYMED 1 2.8 05:16:13 10° SSE 05:20:31 72° ENE 05:24:52 10° N
Aureole 1 Rocket 4.1 05:13:28 10° NNW 05:21:01 60° WSW 05:26:54 10° S
Cosmos 1898 Rocket 4.4 05:21:35 29° NW 05:21:35 29° NW 05:26:00 10° N
Cosmos 1656 4.0 05:20:56 37° W 05:22:05 42° WNW 05:27:17 10° NNE
Meteor 2-10 Rocket 3.4 05:20:58 12° SSW 05:25:40 61° WNW 05:30:38 10° N
Cosmos 1937 Rocket 4.1 05:25:18 34° WNW 05:25:56 35° WNW 05:30:45 10° N
Meteor 1-31 Rocket 3.5 05:23:03 10° N 05:25:52 34° NW 05:25:52 34° NW
IRS-1C Rocket 4.1 05:25:16 10° N 05:30:28 58° WNW 05:35:37 10° SSW
Feng Yun 1-1 Rocket 4.5 05:25:56 10° NNE 05:31:28 73° ESE 05:37:08 10° S
Cosmos 1125 Rocket 3.6 05:28:08 10° SSW 05:33:18 76° ESE 05:38:31 10° NNE
ATLAS 5 CENTAUR R/B 3.6 05:31:29 10° S 05:35:23 30° ESE 05:39:35 10° NE
Cosmos 1441 Rocket 4.3 05:33:07 10° S 05:36:57 48° E 05:40:49 10° NNE
Cosmos 372 Rocket 4.0 05:33:01 10° SSW 05:38:06 84° ESE 05:43:15 10° NNE
Cosmos 1869 Rocket 4.1 05:34:46 10° NNW 05:38:48 35° W 05:42:51 10° SSW
CENTAUR R/B 4.1 05:40:44 22° W 05:42:48 24° WSW 05:49:06 10° SSW
Cosmos 1934 Rocket 4.2 05:39:18 10° SSW 05:45:27 51° WNW 05:51:40 10° N
Cosmos 1707 Rocket 3.9 05:42:01 10° SSW 05:46:16 44° WNW 05:50:34 10° N
Cosmos 1697 Rocket 3.1 05:43:48 19° WSW 05:47:25 41° WNW 05:52:44 10° NNE
Okean O Rocket 2.8 05:44:07 10° NNW 05:47:30 22° WNW 05:47:37 22° WNW
SL-16 R/B 3.5 05:42:51 10° S 05:48:10 43° ESE 05:53:29 10° NE
Cosmos 2123 Rocket 4.1 05:44:16 10° NNW 05:50:13 49° W 05:56:11 10° SSW
Lacrosse 5 rocket 1.8 05:50:28 25° W 05:52:05 37° SW 05:55:51 10° SSE
Cosmos 2297 Rocket 4.0 06:04:25 11° WSW 06:04:25 11° WSW 06:05:02 10° WSW
Geosat 4.0 06:00:40 10° SSE 06:05:39 66° WSW 06:10:41 10° NNW
BREEZE M DEB (TANK) 2.7 06:06:38 16° NW 06:07:41 23° N 06:09:44 10° NE
SKYMED 2 4.2 06:04:40 10° SSW 06:08:38 35° W 06:12:38 10° NNW
CZ-4B R/B 4.3 06:05:13 10° N 06:09:26 24° WNW 06:13:42 10° WSW
Cosmos 1269 Rocket 4.0 06:05:50 10° NNW 06:11:02 60° WSW 06:16:13 10° S
Cosmos 1153 Rocket 4.4 06:05:34 10° SSW 06:11:39 68° W 06:17:50 10° N
Cosmos 2242 Rocket 3.7 06:07:42 10° SSW 06:12:12 58° W 06:16:44 10° N
Cosmos 1606 3.3 06:11:07 10° S 06:14:53 61° E 06:18:39 10° NNE
BREEZE-M DEB (TANK) 3.1 06:13:53 12° WNW 06:16:50 90° NE 06:27:28 10° ESE
Cosmos 1484 Rocket 3.2 06:16:45 10° NNE 06:20:44 71° ESE 06:24:43 10° S
Cosmos 405 3.8 06:17:56 10° NNW 06:21:06 30° W 06:24:16 10° SSW
Cosmos 494 Rocket 4.0 06:16:54 10° NNW 06:22:04 85° ENE 06:27:11 10° SSE
MSX 3.9 06:22:31 10° N 06:28:10 57° WNW 06:33:47 10° SSW
Cosmos 405 Rocket 3.2 06:24:43 10° SW 06:28:28 38° WNW 06:32:09 10° N
IDEFIX/ARIANE 42P 3.2 06:25:28 10° N 06:30:05 33° WNW 06:34:41 10° SW
Cosmos 1703 Rocket 4.0 06:26:16 10° S 06:30:42 71° E 06:35:10 10° NNE
CSL-04 Rocket 4.4 06:26:36 10° NNE 06:31:49 58° E 06:37:03 10° S
Ariane Rocket 4.2 06:27:40 10° NNE 06:32:37 49° E 06:37:31 10° S
Meteor 1-25 Rocket 4.3 06:28:51 10° NNW 06:34:29 62° W 06:40:09 10° S
Cosmos 2263 Rocket 2.2 06:29:08 10° NNW 06:34:49 83° WSW 06:40:30 10° SSE
CZ-2C R/B 3.0 06:30:39 10° N 06:35:19 39° WNW 06:40:05 10° SW
Radarsat Rocket 4.2 06:30:03 10° N 06:35:35 47° WNW 06:41:19 10° SW
SJ-12 4.2 06:33:14 10° N 06:37:14 46° WNW 06:41:11 10° SW
Aureole 3 3.4 06:35:24 10° NNW 06:38:06 30° W 06:40:48 10° SSW
Okean-O 3.6 06:36:50 10° N 06:40:30 26° WNW 06:44:09 10° WSW
COSMOS 2455 3.5 06:37:14 10° NW 06:42:40 36° WSW 06:48:05 10° S
